Regional Weather Roundup
Issued by NWS

Home | Current Version | Previous Version | Text Only | Print | Product List | Glossary Off
Versions: 1 2 3 4 5 6 7 8 9 10 11 12 13 14 15 16 17 18 19 20 21 22 23 24 25 26 27 28 29 30 31 32 33 34 35 36 37 38 39 40 41 42 43 44 45 46 47 48 49 50

000
ASUS43 KBIS 032210
RWRND

NORTH DAKOTA REGIONAL WEATHER ROUNDUP
NATIONAL WEATHER SERVICE BISMARCK ND
500 PM CDT SUN MAY 03 2015

NOTE: "FAIR" INDICATES FEW OR NO CLOUDS BELOW 12,000 FEET WITH NO
SIGNIFICANT WEATHER AND/OR OBSTRUCTIONS TO VISIBILITY.


NDZ001>003-009>011-017-032300-
NORTHWEST NORTH DAKOTA

CITY           SKY/WX    TMP DP  RH WIND       PRES   REMARKS
WILLISTON      SUNNY     65  20  17 NW15G22   30.02S
MINOT          MOSUNNY   61  23  23 W15G28    29.99R
MINOT AFB      MOSUNNY   64  27  24 N15G24    29.98R
$$

NDZ018>021-031>035-040>046-032300-
SOUTHWEST NORTH DAKOTA

CITY           SKY/WX    TMP DP  RH WIND       PRES   REMARKS
BISMARCK       PTSUNNY   65  15  14 N15G25    30.01S
DICKINSON      PTSUNNY   63  26  24 NW15G21   30.02R
GARRISON         N/A     65  23  20 NW18      30.00R
HETTINGER ARPT MOSUNNY   66  27  23 VRB7      30.02F
$$

NDZ004>008-012>016-024-026-027-054-032300-
NORTHEAST NORTH DAKOTA

CITY           SKY/WX    TMP DP  RH WIND       PRES   REMARKS
GRAND FORKS    MOSUNNY   69  26  20 NW18G25   29.90S
GRND FRKS AFB  SUNNY     68  26  20 NW15G21   29.92R
DEVILS LAKE    MOSUNNY   64  25  22 NW15G21   29.95R
$$

NDZ022-023-025-028>030-036>039-047>053-032300-
SOUTHEAST NORTH DAKOTA

CITY           SKY/WX    TMP DP  RH WIND       PRES   REMARKS
FARGO          SUNNY     71  21  15 NW18G24   29.91S
JAMESTOWN      MOSUNNY   66  19  16 NW23      29.95S
$$




USA.gov is the U.S. government's official web portal to all federal, state and local government web resources and services.